Date,TemperatureHighF,TemperatureAvgF,TemperatureLowF,DewpointHighF,DewpointAvgF,DewpointLowF,HumidityHigh,HumidityAvg,HumidityLow,PressureMaxIn,PressureMinIn,WindSpeedMaxMPH,WindSpeedAvgMPH,GustSpeedMaxMPH,PrecipitationSumIn
2013-2-1,17.0,6.9,-1.0,15.0,1.3,-6.0,90,77,68,30.28,30.06,12,6,16,0.00
2013-2-2,24.0,17.6,10.0,23.0,13.8,5.0,95,85,70,30.06,29.91,11,2,14,0.00
2013-2-3,23.0,19.8,13.0,19.0,15.4,9.0,95,83,71,29.98,29.86,13,3,16,0.00
2013-2-4,27.0,22.0,12.0,23.0,18.0,8.0,92,84,80,29.90,29.74,12,3,17,0.00
2013-2-5,33.0,25.1,13.0,30.0,21.7,9.0,100,86,80,30.01,29.72,14,3,16,0.00
2013-2-6,40.0,31.6,19.0,35.0,27.2,16.0,89,83,76,30.12,29.96,12,4,19,0.01
2013-2-7,36.0,34.0,30.0,34.0,33.0,29.0,99,97,89,29.98,29.79,8,2,14,0.42
2013-2-8,30.0,25.0,18.0,29.0,22.2,16.0,97,89,79,30.29,29.96,6,1,12,0.09
2013-2-9,33.0,28.2,19.0,30.0,25.9,18.0,95,91,86,30.29,29.94,17,3,23,0.01
2013-2-10,46.0,39.3,30.0,45.0,37.4,29.0,99,94,71,29.95,29.35,23,11,30,0.31
2013-2-11,41.0,32.6,27.0,35.0,26.5,22.0,82,78,75,29.98,29.43,27,10,28,0.01
2013-2-12,34.0,28.3,26.0,27.0,23.7,21.0,93,83,73,30.02,29.81,10,4,15,0.00
2013-2-13,43.0,34.2,25.0,35.0,30.3,24.0,96,86,69,29.81,29.63,8,3,13,0.00
2013-2-14,42.0,36.9,31.0,34.0,31.5,27.0,92,81,61,29.92,29.55,12,5,19,0.00
2013-2-15,32.0,26.4,18.0,29.0,17.8,10.0,93,70,51,30.13,29.92,10,3,16,0.00
2013-2-16,25.0,17.7,12.0,13.0,10.0,7.0,84,72,58,30.14,30.04,11,2,13,0.00
2013-2-17,34.0,23.2,11.0,25.0,15.8,7.0,85,74,58,30.10,29.82,14,6,21,0.00
2013-2-18,54.0,37.4,23.0,45.0,32.5,19.0,97,83,66,29.82,29.39,17,7,21,0.29
2013-2-19,22.0,14.2,10.0,19.0,9.6,5.0,89,82,76,30.04,29.59,13,5,18,0.06
2013-2-20,12.0,11.8,11.0,9.0,8.8,8.0,88,87,87,30.28,30.28,0,0,0,0.01
2013-2-21,28.0,20.8,11.0,26.0,18.1,8.0,95,89,86,30.28,29.85,15,5,27,0.01
2013-2-22,33.0,28.1,25.0,32.0,26.0,23.0,96,92,85,29.85,29.70,11,6,18,0.01
2013-2-23,30.0,25.1,19.0,23.0,20.5,15.0,89,82,73,29.90,29.83,9,4,16,0.01
2013-2-24,35.0,23.6,9.0,26.0,18.5,7.0,93,82,59,30.04,29.89,7,1,8,0.01
2013-2-25,40.0,30.9,20.0,31.0,26.1,18.0,93,83,69,30.05,29.85,7,2,12,0.01
2013-2-26,36.0,33.4,31.0,32.0,30.7,29.0,98,89,77,29.86,29.47,17,7,25,0.02
2013-2-27,35.0,32.0,30.0,33.0,30.7,29.0,97,95,91,29.70,29.50,8,1,12,0.20
2013-2-28,37.0,33.6,29.0,34.0,31.0,25.0,96,90,82,30.01,29.70,6,1,11,0.02